Preview of NWS' New Version of Forecast
This preview is not operational and should not be used for support decisions.

Regional Weather Roundup (RWR)

Issued by National Weather Service (NWS)

                            
000
ASUS43 KLSX 201857
RWRMO 

WEATHER SUMMARY FOR MISSOURI
NATIONAL WEATHER SERVICE SPRINGFIELD MO
100 PM CST WED FEB 20 2019

NOTE: "FAIR" INDICATES FEW OR NO CLOUDS BELOW 12,000 FEET WITH NO
       SIGNIFICANT WEATHER AND/OR OBSTRUCTIONS TO VISIBILITY.
       CURRENT SKY AND/OR WEATHER CONDITIONS ARE NOT AVAILABLE FOR
       CHILLICOTHE AND FARMINGTON.

MOZ001>031-035>038-043-044-053-054-202000-
...NORTHERN AND WESTERN MISSOURI...
  
CITY           SKY/WX    TMP DP  RH WIND       PRES   REMARKS
KANSAS CTY INT PTSUNNY   35  24  64 W23G32    29.78S WCI  23          
LEE'S SUMMIT   PTSUNNY   36  27  69 SW16G28   29.79S WCI  26          
ST JOSEPH      CLOUDY    32  26  78 SW21      29.78S WCI  20          
CHILLICOTHE      N/A     36  29  75 SW8G17    29.76F WCI  30          
     
$$
MOZ066>068-077>081-088>096-101>105-202000-
...SOUTHWEST MISSOURI...
  
CITY           SKY/WX    TMP DP  RH WIND       PRES   REMARKS
SPRINGFIELD    CLOUDY    39  32  76 SW16      29.84F                  
JOPLIN         CLOUDY    37  31  78 SW10      29.88S WCI  30          
BRANSON        PTSUNNY   41  34  75 W9G16     29.87S                  
               
$$
MOZ032>034-039>042-045>050-055>058-069>072-202000-
...CENTRAL MISSOURI...  
  
CITY           SKY/WX    TMP DP  RH WIND       PRES   REMARKS
COLUMBIA       NOT AVBL                                               
JEFFERSON CITY CLOUDY    38  32  79 W15       29.83S WCI  29          
ROLLA          CLOUDY    37  33  85 W10G20    29.83R WCI  30          
SEDALIA        CLOUDY    35  30  82 SW16G26   29.82S WCI  25          
WARRENSBURG    CLOUDY    34  30  86 SW16      29.81F WCI  23          
OSAGE BEACH    CLOUDY    37  34  87 W14G25    29.84F WCI  29          
               
$$
MOZ051-052-059>065-202000-
...EAST CENTRAL MISSOURI...
  
CITY           SKY/WX    TMP DP  RH WIND       PRES   REMARKS
ST LOUIS INTL  CLOUDY    41  36  82 W16       29.80R                  
ST CHARLES     CLOUDY    41  36  82 W14       29.80R                  
                   
$$
MOZ072>076-082>087-097>100-106>115-202000-
...SOUTH CENTRAL AND SOUTHEAST MISSOURI...
  
CITY           SKY/WX    TMP DP  RH WIND       PRES   REMARKS
CAPE GIRARDEAU CLOUDY    45  42  89 W13       29.83S                  
POPLAR BLUFF   CLOUDY    48  43  82 W12       29.84F                  
WEST PLAINS    CLOUDY    44  37  76 W14G20    29.85F                  
                                       
$$